Flag for Russia Weather past 2 weeks in Yakutsk, Russia

Now
68 °F

Sunny.


Feels Like: 68 °F
Forecast: 55 / 76 °F
Wind: 3 mph from Northwest

Location: Jakutsk

Current Time: Jul 22, 2014 at 9:53:34 PM

Latest Report: Jul 22, 2014 at 9:30 PM


Visibility: 10 mi

Pressure: 29.33 "Hg

Humidity: 49%

Dew point: 48 °F

Location of YakutskLocation

Historic Weather in Yakutsk — Graph

°F

Yakutsk temperature yesterday

Maximum temperature yesterday: 66 °F (at 5:30 PM)
Minimum temperature yesterday: 57 °F (at 7:00 AM)
Average temperature yesterday: 61 °F

Past Weeks' High & Low Weather Summary

 TemperatureHumidityPressure
High88 °F (Jul 16, 4:30 PM)100% (Jul 8, 12:30 AM)29.95 "Hg (Jul 8, 12:30 AM)
Low36 °F (Jul 19, 12:00 PM)27% (Jul 11, 2:30 PM)29.33 "Hg (Jul 22, 5:00 PM)
Average70 °F64%29.66 "Hg
* Reported Jul 7 8:00 PM — Jul 22 8:30 PM, Yakutsk, Weather by CustomWeather, © 2014

Note: Actual official high and low records may vary slightly from our data, if they occured in-between our weather recording intervals... More about our weather records

Advertising

Yakutsk weather history for previous 24 hours

 ConditionsComfort  
Time TempWeatherWind HumidityBarometerVisibility
8:30 PM
Jul 22
68 °FSunny.3 mph46%29.33 "Hg10 mi
8:00 PM70 °FSunny.6 mph40%29.33 "Hg10 mi
7:30 PM72 °FSunny.8 mph38%29.33 "Hg10 mi
7:00 PM72 °FSunny.8 mph38%29.33 "Hg10 mi
6:30 PM72 °FSunny.8 mph36%29.33 "Hg10 mi
6:00 PM73 °FSunny.10 mph33%29.33 "Hg10 mi
5:30 PM72 °FSunny.10 mph36%29.33 "Hg10 mi
5:00 PM70 °FSunny.13 mph35%29.33 "Hg10 mi
4:30 PM70 °FSunny.15 mph38%29.36 "Hg10 mi
4:00 PM72 °FSunny.13 mph36%29.36 "Hg10 mi
3:30 PM72 °FSunny.15 mph36%29.36 "Hg10 mi
3:00 PM70 °FPassing clouds.13 mph40%29.36 "HgN/A
2:30 PM70 °FPassing clouds.13 mph40%29.36 "HgN/A
2:00 PM68 °FSunny.13 mph43%29.36 "Hg10 mi
1:30 PM66 °FPassing clouds.10 mph49%29.36 "HgN/A
1:00 PM63 °FSunny.8 mph56%29.39 "Hg10 mi
12:30 PM63 °FPartly sunny.8 mph56%29.39 "HgN/A
12:00 PM61 °FPartly sunny.8 mph59%29.39 "HgN/A
11:30 AM59 °FOvercast.8 mph68%29.42 "HgN/A
11:00 AM57 °FMore clouds than sun.8 mph67%29.42 "HgN/A
10:30 AM57 °FMore clouds than sun.8 mph72%29.42 "HgN/A
10:00 AM55 °FBroken clouds.10 mph77%29.42 "HgN/A
9:30 AM55 °FSprinkles. Broken clouds.6 mph77%29.42 "HgN/A
9:00 AM55 °FBroken clouds.6 mph77%29.42 "HgN/A
8:30 AM55 °FBroken clouds.6 mph72%29.42 "HgN/A
8:00 AM55 °FBroken clouds.3 mph72%29.42 "HgN/A
7:30 AM54 °FBroken clouds.6 mph77%29.42 "HgN/A
7:00 AM54 °FBroken clouds.6 mph72%29.42 "HgN/A
6:30 AM52 °FBroken clouds.6 mph82%29.42 "HgN/A
6:00 AM52 °FBroken clouds.3 mph82%29.42 "HgN/A
5:30 AM52 °FBroken clouds.6 mph82%29.42 "HgN/A
5:00 AM54 °FPartly cloudy.6 mph77%29.42 "HgN/A
4:30 AM54 °FPartly cloudy.6 mph82%29.45 "HgN/A
4:00 AM54 °FPartly cloudy.6 mph88%29.42 "HgN/A
3:30 AM54 °FPartly cloudy.6 mph88%29.45 "HgN/A
3:00 AM54 °FPartly cloudy.6 mph94%29.45 "HgN/A
2:30 AM55 °FPartly cloudy.3 mph88%29.45 "HgN/A
2:00 AM55 °FPartly cloudy.1 mph82%29.45 "HgN/A
1:30 AM55 °FPartly cloudy.No wind88%29.45 "HgN/A
1:00 AM55 °FPartly cloudy.3 mph88%29.45 "HgN/A
12:30 AM57 °FPartly cloudy.1 mph82%29.47 "HgN/A
12:00 AM57 °FPartly cloudy.3 mph82%29.47 "HgN/A
11:30 PM
Jul 21
57 °FBroken clouds.1 mph82%29.47 "HgN/A
11:00 PM57 °FBroken clouds.3 mph82%29.47 "HgN/A
10:30 PM59 °FMore clouds than sun.3 mph82%29.47 "HgN/A
10:00 PM59 °FMore clouds than sun.3 mph77%29.47 "HgN/A
9:30 PM59 °FMore clouds than sun.1 mph82%29.47 "HgN/A
9:00 PM59 °FMore clouds than sun.3 mph82%29.50 "HgN/A
Weather by CustomWeather, © 2014

See weather overviewHow to use our weather pages